APRIZESAT 4

Satellite information

Favourite Embed

Satellite Type and Status

PAYLOADIN ORBIT

Key statistics

Satellite APRIZESAT 4 at a glance.

Uptime

5762

Days in orbit

Revolutions

≈ 14.8

Per day

Orbit

SSO

Sun Synchronous Orbit

Inclination

98.2

Latest

Satellite identification and parameters

Extended collection of information and parameters for APRIZESAT 4.

Object identification

Identified? True

Debris? False

Object name: APRIZESAT 4

International designator: 2009-041D

Object number (NORAD): 35684

Object ID (CCSDS): 35684

Country: UNITED STATES OF AMERICA (US)

Current information (Y/N): Y

RCS size: MEDIUM

Orbital parameters

Period: 97.103 minutes

Inclination: 98.1871 deg

SMA: 6998.122 km

Apoapsis: 650.627 km

Periapsis: 589.347 km

RAAN: 189.1085 deg

Eccentricy: 0.0043783

Argument of periapsis: 193.357 deg

Mean anomaly: 166.6487 deg

Mean motion: 14.82963523 rev/day

Mean motion (dot): 0.00001123 rev/day2

B* drag term: 0.00014325 1/REarth

Two-line elements (TLE)

Creation date: May 8, 2025, 3:01 a.m.

Reference frame: TEME

Reference center: EARTH

Epoch: May 7, 2025, 5:36 p.m. UTC

TLE line 0: 0 APRIZESAT 4

TLE line 1: 1 35684U 09041D 25127.73390690 .00001123 00000-0 14325-3 0 9999

TLE line 2: 2 35684 98.1871 189.1085 0043783 193.3570 166.6487 14.82963523851259

Live tracking on map

Real-time ground track for satellite APRIZESAT 4.

In-orbit conjunctions

There are no conjunctions computed for APRIZESAT 4, at the moment. Check back to stay up to date, as we update our databases every day.

Go to all conjunctions

Associated space launch

Emirati Earth observation satellite. Launched with 5 secondary payloads.

APRIZESAT 4 was lifted into orbit during the mission ‘Dnepr | DubaiSat 1’, on board a Dnepr space rocket.

The launch took place on July 29, 2009, 6:46 p.m. from 109/95.

For more information about the launch, click the button.

Launch to space Dnepr | DubaiSat 1
Dnepr | DubaiSat 1

Agency: N/A

Status: Launch Successful

Launch date: July 29, 2009, 6:46 p.m. UTC

Rocket: Dnepr

Launch pad: 109/95

Location: Baikonur Cosmodrome, Republic of Kazakhstan

...

Latest news about this satellite

There are no fresh news available about this satellite. Check back as we update our databases every day.


Newsletter sign-up

Weekly statistics, charts and insights to help you stay on top of the space industry.